Location: Sungai Bunut
(2.6333°N, 113.7333°E)
Time: 02:52:22
(UTC+00:00)

S-56A Canister/Altair - Pass Details

Date: 09 December 2023
Orbit: 640 x 2488 km, 38.9° (Epoch: 24 February)

Event Time Altitude Azimuth Distance (km) Brightness Sun altitude
Rises 20:26:30 0° 209° (SSW) 6,065 12.1 -26.5°
Reaches altitude 10° 20:31:57 10° 196° (SSW) 4,878 11.7 -25.3°
Maximum altitude 20:41:46 24° 149° (SSE) 3,366 11.3 -23.0°
Drops below altitude 10° 20:49:29 10° 100° (E) 3,788 12.1 -21.3°
Sets 20:52:59 0° 86° (E) 4,476 12.5 -20.5°
